Overview Statistics Trail Chart Weather Telemetry Raw packets
 

This is the latest recevied weather packets stored in our database for station/object K0APR. If no packets are shown the sender has not sent any weather packets the latest 10 day(s).

<< 15 16 17 18 19 20 21 >>
Time Temp. Humidity Pressure Rain* Wind** Luminosity Snow
1788554602 30° C 67% 1013.3 hPa 0 mm - 81 W/m² -
1788554298 30° C 69% 1013.3 hPa 0 mm - 221 W/m² -
1788553994 30° C 67% 1013.3 hPa 0 mm - 54 W/m² -
1788553689 30.56° C 67% 1013 hPa 0 mm - 55 W/m² -
1788553386 30° C 67% 1013.3 hPa 0 mm - 536 W/m² -
1788553081 30° C 66% 1013.3 hPa 0 mm - 235 W/m² -
1788552781 29.44° C 66% 1013.7 hPa 0 mm - 474 W/m² -
1788552476 30° C 67% 1013.3 hPa 0 mm - 538 W/m² -
1788552175 30° C 67% 1013.7 hPa 0 mm - 523 W/m² -
1788551875 29.44° C 67% 1013.7 hPa 0 mm - 505 W/m² -
1788551574 30° C 66% 1013.3 hPa 0 mm - 539 W/m² -
1788551269 29.44° C 66% 1013.7 hPa 0 mm - 551 W/m² -
1788550968 28.89° C 69% 1013.7 hPa 0 mm - 548 W/m² -
1788550663 29.44° C 71% 1013.7 hPa 0 mm - 549 W/m² -
1788550359 28.89° C 72% 1013.7 hPa 0 mm - 561 W/m² -
1788550054 28.89° C 70% 1013.7 hPa 0 mm - 554 W/m² -
1788549749 28.89° C 72% 1013.7 hPa 0 mm - 555 W/m² -
1788549446 28.89° C 74% 1013.3 hPa 0 mm - 566 W/m² -
1788549142 28.33° C 73% 1013.3 hPa 0 mm - 534 W/m² -
1788548839 28.33° C 74% 1013.3 hPa 0 mm - 497 W/m² -
1788548534 28.33° C 74% 1013.7 hPa 0 mm - 563 W/m² -
1788548230 27.78° C 75% 1013.7 hPa 0 mm - 576 W/m² -
1788547925 27.78° C 77% 1013.7 hPa 0 mm - 563 W/m² -
1788547623 27.78° C 76% 1013.7 hPa 0 mm - 564 W/m² -
1788547319 27.78° C 77% 1013.7 hPa 0 mm - 568 W/m² -

* Rain latest hour (hover to see other rain measurements)
** Current wind speed in m/s (hover to see current wind gust speed)